Regional Weather Roundup
Issued by NWS Tiyan, Guam

Home | Current Version | Previous Version | Text Only | Print | Product List | Glossary On
Versions: 1 2 3 4 5 6 7 8 9 10 11 12 13 14 15 16 17 18 19 20 21 22 23 24 25 26 27 28 29 30 31 32 33 34 35 36 37 38 39 40 41 42 43 44 45 46 47 48 49 50
000
ASGM40 PGUM 202212
RWRGUM
WEATHER ROUNDUP FOR THE MARIANAS
NATIONAL WEATHER SERVICE TIYAN GU
800 AM CHST THU AUG 21 2014

GUZ001>004-202300-
MARIANA ISLANDS-

CITY           SKY/WX    TMP DP  RH WIND       PRES   REMARKS
GUAM AIRPORT   LGT RAIN  79  77  94 CALM      29.88R
ANDERSEN AFB   SUNNY     77  75  94 SW5       29.88S
ROTA AIRPORT   PTSUNNY   79  77  94 VRB2      29.87R
TINIAN AP      MOSUNNY   81  79  94 CALM      29.84R
SAIPAN AP      SUNNY     84  75  74 E3        29.86R HX  92

$$



USA.gov is the U.S. government's official web portal to all federal, state and local government web resources and services.